TimeCDT,TemperatureF,Dew PointF,Humidity,Sea Level PressureIn,VisibilityMPH,Wind Direction,Wind SpeedMPH,Gust SpeedMPH,PrecipitationIn,Events,Conditions,WindDirDegrees,DateUTC
12:15 AM,66.2,64.4,94,30.06,10.0,SSE,12.7,17.3,N/A,,Clear,160,2013-05-26 05:15:00
12:35 AM,66.2,64.4,94,30.06,10.0,South,12.7,-,N/A,,Clear,170,2013-05-26 05:35:00
12:55 AM,66.2,64.4,94,30.06,10.0,South,10.4,17.3,N/A,,Clear,170,2013-05-26 05:55:00
1:15 AM,66.2,64.4,94,30.07,10.0,South,10.4,17.3,N/A,,Clear,170,2013-05-26 06:15:00
1:35 AM,66.2,64.4,94,30.07,10.0,SSE,10.4,-,N/A,,Clear,160,2013-05-26 06:35:00
1:55 AM,66.2,64.4,94,30.06,10.0,SSE,12.7,-,N/A,,Clear,160,2013-05-26 06:55:00
2:15 AM,66.2,64.4,94,30.04,10.0,SSE,11.5,-,N/A,,Clear,160,2013-05-26 07:15:00
2:35 AM,66.2,64.4,94,30.03,10.0,SSE,9.2,-,N/A,,Clear,160,2013-05-26 07:35:00
2:55 AM,66.2,64.4,94,30.02,10.0,SSE,11.5,-,N/A,,Clear,160,2013-05-26 07:55:00
3:15 AM,66.2,64.4,94,30.02,10.0,SSE,10.4,16.1,N/A,,Clear,150,2013-05-26 08:15:00
3:35 AM,66.2,66.2,100,30.02,10.0,SSE,12.7,16.1,N/A,,Clear,160,2013-05-26 08:35:00
3:55 AM,66.2,66.2,100,30.02,10.0,SSE,11.5,-,N/A,,Clear,160,2013-05-26 08:55:00
4:15 AM,66.2,66.2,100,30.02,10.0,SSE,12.7,-,N/A,,Clear,150,2013-05-26 09:15:00
4:35 AM,66.2,66.2,100,30.02,10.0,SSE,11.5,17.3,N/A,,Clear,160,2013-05-26 09:35:00
4:55 AM,66.2,66.2,100,30.02,10.0,SSE,12.7,18.4,N/A,,Scattered Clouds,160,2013-05-26 09:55:00
5:15 AM,68.0,68.0,100,30.02,10.0,SSE,13.8,20.7,N/A,,Overcast,160,2013-05-26 10:15:00
5:35 AM,68.0,68.0,100,30.02,10.0,SSE,15.0,20.7,N/A,,Overcast,160,2013-05-26 10:35:00
5:55 AM,68.0,68.0,100,30.02,10.0,SSE,15.0,19.6,N/A,,Overcast,150,2013-05-26 10:55:00
6:15 AM,68.0,68.0,100,30.01,7.0,South,12.7,19.6,N/A,,Mostly Cloudy,170,2013-05-26 11:15:00
6:35 AM,68.0,68.0,100,30.02,7.0,South,12.7,18.4,N/A,,Overcast,170,2013-05-26 11:35:00
6:55 AM,68.0,68.0,100,30.04,7.0,South,10.4,19.6,N/A,,Overcast,170,2013-05-26 11:55:00
7:15 AM,68.0,68.0,100,30.04,7.0,SSE,11.5,-,N/A,,Overcast,160,2013-05-26 12:15:00
7:35 AM,68.0,68.0,100,30.04,7.0,SSE,12.7,-,N/A,,Overcast,160,2013-05-26 12:35:00
7:55 AM,68.0,68.0,100,30.05,7.0,SSE,11.5,-,N/A,,Overcast,160,2013-05-26 12:55:00
8:15 AM,69.8,68.0,94,30.05,7.0,South,15.0,19.6,N/A,,Overcast,170,2013-05-26 13:15:00
8:35 AM,69.8,68.0,94,30.05,10.0,South,10.4,-,N/A,,Overcast,170,2013-05-26 13:35:00
8:55 AM,69.8,68.0,94,30.06,10.0,South,10.4,-,N/A,,Overcast,170,2013-05-26 13:55:00
9:15 AM,69.8,69.8,100,30.06,10.0,South,12.7,18.4,N/A,,Overcast,170,2013-05-26 14:15:00
9:35 AM,71.6,69.8,94,30.06,10.0,South,13.8,-,N/A,,Overcast,170,2013-05-26 14:35:00
9:55 AM,71.6,69.8,94,30.06,10.0,South,15.0,-,N/A,,Overcast,180,2013-05-26 14:55:00
10:15 AM,71.6,69.8,94,30.05,10.0,South,13.8,17.3,N/A,,Overcast,170,2013-05-26 15:15:00
10:35 AM,71.6,69.8,94,30.05,10.0,South,13.8,-,N/A,,Overcast,170,2013-05-26 15:35:00
10:55 AM,73.4,69.8,88,30.05,10.0,South,15.0,20.7,N/A,,Overcast,180,2013-05-26 15:55:00
11:15 AM,73.4,71.6,94,30.04,10.0,South,12.7,19.6,N/A,,Overcast,170,2013-05-26 16:15:00
11:35 AM,73.4,69.8,88,30.05,10.0,South,20.7,24.2,N/A,,Overcast,180,2013-05-26 16:35:00
11:55 AM,73.4,69.8,88,30.04,10.0,South,20.7,25.3,N/A,,Overcast,170,2013-05-26 16:55:00
12:15 PM,73.4,69.8,88,30.04,10.0,South,15.0,-,N/A,,Overcast,180,2013-05-26 17:15:00
12:35 PM,73.4,69.8,88,30.03,10.0,South,13.8,-,N/A,,Overcast,170,2013-05-26 17:35:00
12:55 PM,77.0,71.6,83,30.03,10.0,SSE,17.3,21.9,N/A,,Overcast,160,2013-05-26 17:55:00
1:15 PM,77.0,71.6,83,30.02,10.0,SSE,20.7,26.5,N/A,,Overcast,160,2013-05-26 18:15:00
1:35 PM,77.0,71.6,83,30.01,10.0,SSE,13.8,23.0,N/A,,Overcast,150,2013-05-26 18:35:00
1:55 PM,77.0,69.8,78,30.01,10.0,SSE,20.7,28.8,N/A,,Overcast,160,2013-05-26 18:55:00
2:15 PM,78.8,71.6,78,30.00,10.0,SSE,19.6,27.6,N/A,,Mostly Cloudy,160,2013-05-26 19:15:00
2:35 PM,78.8,71.6,78,29.99,10.0,South,21.9,27.6,N/A,,Mostly Cloudy,170,2013-05-26 19:35:00
2:55 PM,78.8,71.6,78,29.99,10.0,South,13.8,24.2,N/A,,Overcast,170,2013-05-26 19:55:00
3:15 PM,78.8,71.6,78,29.99,10.0,South,16.1,23.0,N/A,,Overcast,170,2013-05-26 20:15:00
3:35 PM,78.8,71.6,78,29.98,10.0,South,21.9,27.6,N/A,,Mostly Cloudy,170,2013-05-26 20:35:00
3:55 PM,80.6,71.6,74,29.97,10.0,South,17.3,23.0,N/A,,Mostly Cloudy,170,2013-05-26 20:55:00
4:15 PM,80.6,71.6,74,29.96,10.0,SSE,18.4,24.2,N/A,,Scattered Clouds,150,2013-05-26 21:15:00
4:35 PM,80.6,71.6,74,29.95,10.0,SSE,20.7,27.6,N/A,,Scattered Clouds,160,2013-05-26 21:35:00
4:55 PM,80.6,71.6,74,29.95,10.0,SSE,19.6,25.3,N/A,,Scattered Clouds,160,2013-05-26 21:55:00
5:15 PM,80.6,71.6,74,29.95,10.0,South,20.7,25.3,N/A,,Scattered Clouds,170,2013-05-26 22:15:00
5:35 PM,80.6,71.6,74,29.94,10.0,SSE,13.8,19.6,N/A,,Scattered Clouds,160,2013-05-26 22:35:00
5:55 PM,80.6,71.6,74,29.94,10.0,SSE,15.0,20.7,N/A,,Scattered Clouds,160,2013-05-26 22:55:00
6:15 PM,80.6,69.8,70,29.93,10.0,SSE,19.6,24.2,N/A,,Mostly Cloudy,160,2013-05-26 23:15:00
6:35 PM,78.8,69.8,74,29.92,10.0,SSE,17.3,21.9,N/A,,Scattered Clouds,160,2013-05-26 23:35:00
6:55 PM,78.8,69.8,74,29.92,10.0,South,15.0,18.4,N/A,,Clear,170,2013-05-26 23:55:00
7:15 PM,80.6,71.6,74,29.92,10.0,South,13.8,17.3,N/A,,Scattered Clouds,170,2013-05-27 00:15:00
7:35 PM,78.8,69.8,74,29.92,10.0,SSE,10.4,16.1,N/A,,Scattered Clouds,160,2013-05-27 00:35:00
7:55 PM,78.8,71.6,78,29.92,10.0,SSE,9.2,-,N/A,,Scattered Clouds,150,2013-05-27 00:55:00
8:15 PM,77.0,71.6,83,29.92,10.0,SSE,11.5,17.3,N/A,,Scattered Clouds,150,2013-05-27 01:15:00
8:35 PM,77.0,69.8,78,29.92,10.0,SSE,13.8,18.4,N/A,,Clear,150,2013-05-27 01:35:00
8:55 PM,75.2,69.8,83,29.93,10.0,SSE,12.7,-,N/A,,Clear,150,2013-05-27 01:55:00
9:15 PM,75.2,71.6,89,29.94,10.0,SSE,11.5,-,N/A,,Clear,150,2013-05-27 02:15:00
9:35 PM,75.2,71.6,89,29.94,10.0,SE,13.8,17.3,N/A,,Clear,140,2013-05-27 02:35:00
9:55 PM,73.4,71.6,94,29.95,10.0,SE,15.0,20.7,N/A,,Clear,140,2013-05-27 02:55:00
10:15 PM,73.4,71.6,94,29.95,10.0,SE,18.4,23.0,N/A,,Clear,140,2013-05-27 03:15:00
10:35 PM,73.4,71.6,94,29.96,10.0,SE,15.0,-,N/A,,Clear,140,2013-05-27 03:35:00
10:55 PM,73.4,69.8,88,29.96,10.0,SSE,16.1,24.2,N/A,,Clear,150,2013-05-27 03:55:00
11:15 PM,71.6,71.6,100,29.96,10.0,SSE,16.1,20.7,N/A,,Clear,150,2013-05-27 04:15:00
11:35 PM,71.6,69.8,94,29.95,10.0,SSE,15.0,-,N/A,,Clear,150,2013-05-27 04:35:00
11:55 PM,71.6,69.8,94,29.94,10.0,SSE,17.3,24.2,N/A,,Clear,150,2013-05-27 04:55:00